• MPC Preparation (Info)

  • MPEC 2023-R155 : 2023 RO5

    The following Minor Planet Electronic Circular may be linked-to from your own Web pages, but must not otherwise be redistributed electronically.

    A form allowing access to any MPEC is at the bottom of this page.


    Read MPEC 2023-R154 Read MPEC 2023-R156


    M.P.E.C. 2023-R155                           Issued 2023 September 12, 11:29 UT
    
         The Minor Planet Electronic Circulars contain information on unusual
             minor planets, routine data on comets and natural satellites,
             and occasional editorial announcements.  They are published
        on behalf of Division F of the International Astronomical Union by the
              Minor Planet Center, Smithsonian Astrophysical Observatory,
                              Cambridge, MA 02138, U.S.A.
    			  
                 Prepared using the Tamkin Foundation Computer Network
    
                                  MPC@CFA.HARVARD.EDU
                URL https://www.minorplanetcenter.net/    ISSN 1523-6714
    
                                    2023 RO5                                 
    
    
    Observations:
         K23R05O*1C2023 09 09.46469802 39 37.775+45 55 39.18         21.57GVER155G96
         K23R05O 1C2023 09 09.47422402 39 40.396+45 56 02.18         21.19GVER155G96
         K23R05O 1C2023 09 09.47897602 39 41.710+45 56 14.10         20.86GVER155G96
         K23R05O 1C2023 09 09.49883902 39 47.120+45 57 02.20         21.25GVER155G96
         K23R05O 1C2023 09 09.49995202 39 47.550+45 57 04.30               VER155G96
         K23R05O KC2023 09 10.35117402 43 53.330+46 31 20.60               VER155V06
         K23R05O KC2023 09 10.35328802 43 53.930+46 31 25.90         21.02GVER155V06
         K23R05O KC2023 09 10.35540402 43 54.520+46 31 30.80         21.88GVER155V06
         K23R05O KC2023 09 10.37285102 43 58.72 +46 32 12.5                uER155H21
         K23R05O KC2023 09 10.37844502 44 00.29 +46 32 26.0          21.2 VuER155H21
         K23R05O KC2023 09 10.38114702 44 00.99 +46 32 32.3          21.2 VuER155H21
         K23R05O KC2023 09 10.38282402 44 01.50 +46 32 36.2          20.7 VuER155H21
         K23R05O 1C2023 09 11.09989 02 47 29.87 +47 00 50.7          21.2 VXER155033
         K23R05O 1C2023 09 11.10238 02 47 30.57 +47 00 56.5          21.1 VXER155033
         K23R05O 1C2023 09 11.10486 02 47 31.28 +47 01 02.4          21.2 VXER155033
         K23R05O pC2023 09 12.09796802 52 23.26 +47 39 24.9          21.1 GVER155L01
         K23R05O KC2023 09 12.10112302 52 24.14 +47 39 31.0          21.3 GVER155L01
         K23R05O 1C2023 09 12.11060 02 52 26.97 +47 39 50.5          19.9 VXER155033
         K23R05O 1C2023 09 12.11273 02 52 27.60 +47 39 55.2          20.6 VXER155033
         K23R05O 1C2023 09 12.11487 02 52 28.21 +47 40 00.1          20.5 VXER155033
         K23R05O 1C2023 09 12.11707 02 52 28.83 +47 40 05.1          20.6 VXER155033
    
    Observer details:
    033 Karl Schwarzschild Observatory, Tautenburg.  Observers S. Melnikov, C.
        Hoegner, F. Ludwig, M. Hartmann, B. Stecklum.  Measurer B. Stecklum.
        1.34-m f/3 Schmidt + CCD.
    G96 Mt. Lemmon Survey.  Observer D. C. Fuls.  Measurers E. J. Christensen, D.
        Fay, J. B. Fazekas, D. C. Fuls, A. R. Gibbs, A. D. Grauer, H. Groeller, J.
        K. Hogan, R. A. Kowalski, S. M. Larson, G. J. Leonard, D. Rankin, R. L.
        Seaman, A. Serrano, F. C. Shelly, K. W. Wierzchos.  1.5-m reflector + 10K
        CCD.
    H21 Astronomical Research Observatory, Westfield.  Observer R. Holmes.
        Measurers T. Linder, R. Holmes, L. Horn.  0.76-m f/3.0 astrograph + CCD.
    L01 Visnjan Observatory, Tican.  Observer K. Korlevic.  1.0-m f/2.9 reflector
        + CCD.
    V06 Catalina Sky Survey-Kuiper.  Observer J. B. Fazekas.  Measurers E. J.
        Christensen, D. Fay, J. B. Fazekas, D. C. Fuls, A. R. Gibbs, A. D. Grauer,
        H. Groeller, J. K. Hogan, R. A. Kowalski, S. M. Larson, G. J. Leonard, D.
        Rankin, R. L. Seaman, A. Serrano, F. C. Shelly, K. W. Wierzchos.  1.55-m
        reflector + 1K CCD.
    
    Orbital elements:
    2023 RO5                                                 Earth MOID = 0.2827 AU
    Epoch 2023 Sept. 13.0 TT = JDT 2460200.5                Veres                   
    M 356.27257              (2000.0)            P               Q                  
    n   0.20471043     Peri.   79.57798     +0.90258537     -0.39930882             
    a   2.8512989      Node   303.77936     +0.27852207     +0.82661859             
    e   0.5814145      Incl.   11.16245     +0.32827597     +0.39655287             
    P   4.81           H   20.77          G   0.15           U   9                  
    Residuals in seconds of arc
    230909 G96  0.1-  0.0     230910 V06  0.0   0.4-    230911 033  0.1+  0.1-
    230909 G96  0.0   0.2-    230910 H21  0.1+  0.2-    230912 L01  0.1-  1.1+
    230909 G96  0.1+  0.1+    230910 H21  0.2+  0.2-    230912 L01  0.3-  0.0
    230909 G96  0.5-  0.1+    230910 H21  0.4-  0.3-    230912 033  0.3+  0.0
    230909 G96  0.8+  0.5-    230910 H21  0.1+  0.5-    230912 033  0.5+  0.2-
    230910 V06  0.0   0.3-    230911 033  0.2+  0.1-    230912 033  0.4+  0.2-
    230910 V06  0.1+  0.1-    230911 033  0.1+  0.2-    230912 033  0.3+  0.2-
    
    Ephemeris:
    2023 RO5                 a,e,i = 2.85, 0.58, 11                  q = 1.1935
    Date    TT    R. A. (2000) Decl.     Delta      r    Elong.  Phase     V
    2023 08 13    00 55 42.1 +24 17 45   0.5214  1.3275   116.0    43.3    21.6
    ...
    2023 08 28    01 46 10.0 +36 30 15   0.4520  1.2611   113.6    47.2    21.3
    ...
    2023 09 05    02 19 08.7 +42 44 50   0.4301  1.2339   111.7    49.4    21.2
    ...
    2023 09 11    02 47 00.4 +46 56 56   0.4196  1.2178   110.3    50.9    21.2
    2023 09 12    02 51 54.0 +47 35 37   0.4183  1.2155   110.1    51.1    21.2
    2023 09 13    02 56 51.5 +48 13 14   0.4170  1.2133   109.9    51.3    21.2
    ...
    2023 09 19    03 27 50.2 +51 34 21   0.4120  1.2025   108.8    52.3    21.2
    ...
    2023 09 27    04 11 04.2 +54 50 36   0.4099  1.1946   108.0    53.0    21.2
    ...
    2023 10 12    05 26 38.1 +57 24 34   0.4143  1.2005   109.3    51.7    21.2
    
    M. P. C. Staff               (C) Copyright 2023 MPC           M.P.E.C. 2023-R155
    


    Read MPEC 2023-R154 Read MPEC 2023-R156


    MPEC number:

    Enter an MPEC number in one of the following forms:

    • 1997-B01 (the full form)
    • J97B01 (the packed version of the full form)
    • B01 (the abbreviated form)